TimeMDT,TemperatureF,Dew PointF,Humidity,Sea Level PressureIn,VisibilityMPH,Wind Direction,Wind SpeedMPH,Gust SpeedMPH,PrecipitationIn,Events,Conditions,WindDirDegrees,DateUTC
12:53 AM,36.0,10.0,34,29.87,10.0,NE,5.8,-,N/A,,Clear,50,2014-04-10 06:53:00
1:53 AM,34.0,10.9,38,29.86,10.0,NNE,6.9,-,N/A,,Clear,30,2014-04-10 07:53:00
2:53 AM,32.0,10.9,42,29.85,10.0,NE,5.8,-,N/A,,Clear,50,2014-04-10 08:53:00
3:53 AM,30.9,12.0,46,29.86,10.0,NE,10.4,-,N/A,,Partly Cloudy,50,2014-04-10 09:53:00
4:53 AM,36.0,12.0,37,29.83,10.0,NNE,9.2,21.9,N/A,,Partly Cloudy,20,2014-04-10 10:53:00
5:53 AM,35.1,16.0,46,29.83,10.0,Calm,Calm,-,N/A,,Scattered Clouds,0,2014-04-10 11:53:00
6:53 AM,30.9,15.1,52,29.90,10.0,Variable,4.6,-,N/A,,Clear,0,2014-04-10 12:53:00
7:53 AM,35.6,14.0,41,30.19,10.0,Calm,Calm,-,N/A,,Partly Cloudy,0,2014-04-10 13:53:00
8:53 AM,41.0,12.9,32,29.89,10.0,Variable,5.8,-,N/A,,Partly Cloudy,0,2014-04-10 14:53:00
9:53 AM,42.1,12.9,31,29.88,10.0,Variable,4.6,18.4,N/A,,Clear,0,2014-04-10 15:53:00
10:53 AM,43.0,14.0,31,29.88,10.0,WSW,8.1,-,N/A,,Overcast,250,2014-04-10 16:53:00
11:53 AM,45.0,14.0,29,29.87,10.0,West,9.2,-,N/A,,Mostly Cloudy,270,2014-04-10 17:53:00
12:53 PM,45.0,12.0,26,29.85,10.0,West,16.1,25.3,N/A,,Scattered Clouds,260,2014-04-10 18:53:00
1:53 PM,45.0,10.0,24,29.86,10.0,West,20.7,28.8,N/A,,Overcast,260,2014-04-10 19:53:00
2:34 PM,46.0,9.0,22,30.17,10.0,WNW,12.7,25.3,N/A,,Overcast,300,2014-04-10 20:34:00
2:53 PM,46.0,9.0,22,29.86,10.0,WSW,17.3,26.5,N/A,,Overcast,250,2014-04-10 20:53:00
3:08 PM,46.0,10.9,24,30.17,10.0,WNW,13.8,27.6,N/A,,Mostly Cloudy,290,2014-04-10 21:08:00
3:53 PM,46.0,9.0,22,29.87,10.0,NW,18.4,31.1,N/A,,Partly Cloudy,310,2014-04-10 21:53:00
4:53 PM,46.0,10.0,23,29.84,10.0,WNW,17.3,25.3,N/A,,Mostly Cloudy,290,2014-04-10 22:53:00
5:53 PM,44.1,14.0,30,29.87,10.0,NNW,6.9,17.3,N/A,,Clear,340,2014-04-10 23:53:00
6:53 PM,41.0,17.1,38,29.94,10.0,North,6.9,-,N/A,,Clear,360,2014-04-11 00:53:00
7:53 PM,37.9,17.1,43,29.95,10.0,NNE,4.6,-,N/A,,Partly Cloudy,20,2014-04-11 01:53:00
8:53 PM,36.0,21.9,57,29.94,10.0,ENE,8.1,-,N/A,,Scattered Clouds,60,2014-04-11 02:53:00
9:53 PM,30.9,19.9,64,29.98,10.0,ENE,5.8,-,N/A,,Clear,70,2014-04-11 03:53:00
10:53 PM,28.0,19.0,69,29.99,10.0,ENE,5.8,-,N/A,,Clear,70,2014-04-11 04:53:00
11:53 PM,28.0,18.0,66,29.95,10.0,ENE,4.6,-,N/A,,Clear,70,2014-04-11 05:53:00